Stations météo

réclame
Mon MeteoGroup
L9F, Pays-Bas (6207): Température de l'air & dewpoint: 19.11.2017 02:00:00 - 25.11.2017 02:00:00 (CET)L9F, Pays-Bas (6207): Vitesse du vent & gusts: 19.11.2017 02:00:00 - 25.11.2017 02:00:00 (CET)L9F, Pays-Bas (6207): Direction du vent: 19.11.2017 02:00:00 - 25.11.2017 02:00:00 (CET)L9F, Pays-Bas (6207): reduced air pressure: 19.11.2017 02:00:00 - 25.11.2017 02:00:00 (CET)L9F, Pays-Bas (6207): visibility: 19.11.2017 02:00:00 - 25.11.2017 02:00:00 (CET)
Date & Time tt [°C] td [°C] ff [km/h] ff [knt] fx [km/h] fx [knt] dd ppp [hPa] vv [km]
25.11.2017 02:00:00 8,0 0,1 24 13 29 16 WSW 1009,8 10
25.11.2017 01:00:00 8,0 -0,7 28 15 - - WSW 1010,3 10
25.11.2017 00:00:00 8,1 -1,3 21 11 25 14 W 1010,7 10
24.11.2017 23:00:00 8,1 -0,5 24 13 29 16 W 1010,5 10
24.11.2017 22:00:00 8,0 -0,5 28 15 - - W 1010,4 10
24.11.2017 21:00:00 8,4 0,0 31 17 36 19 W 1010,4 10
24.11.2017 20:00:00 8,3 -0,8 31 17 32 18 W 1010,4 10
24.11.2017 19:00:00 8,4 0,6 34 18 - - W 1010,2 10
24.11.2017 18:00:00 8,4 0,2 34 18 36 19 W 1010,0 10
24.11.2017 17:00:00 8,5 0,9 29 16 36 19 WSW 1009,4 10
24.11.2017 16:00:00 8,5 1,1 31 17 - - W 1009,1 10
24.11.2017 15:00:00 8,2 3,1 34 18 40 21 - 1008,9 10
24.11.2017 14:00:00 8,9 0,5 29 16 32 18 W 1008,4 10
24.11.2017 13:00:00 9,0 1,5 24 13 - - W 1008,1 10
24.11.2017 12:00:00 9,0 2,3 24 13 32 18 - 1007,8 10
24.11.2017 11:00:00 9,1 1,8 28 15 29 16 W 1007,4 10
24.11.2017 10:00:00 9,0 1,7 28 15 - - - 1006,7 10
24.11.2017 09:00:00 9,1 2,4 26 14 29 16 - 1006,2 10
24.11.2017 08:00:00 9,2 3,3 24 13 25 14 W 1005,5 10
24.11.2017 07:00:00 9,1 3,0 26 14 - - W 1004,8 10
24.11.2017 06:00:00 9,3 3,8 24 13 25 14 W 1004,6 10
24.11.2017 05:00:00 9,5 4,1 28 15 32 18 W 1004,4 10
24.11.2017 04:00:00 9,7 4,3 31 17 - - WSW 1004,8 10
24.11.2017 03:00:00 9,7 3,5 34 18 36 19 W 1004,4 10
24.11.2017 02:00:00 9,8 3,5 32 18 43 23 WSW 1004,2 38
24.11.2017 01:00:00 10,0 4,2 32 18 - - WSW 1004,0 35
24.11.2017 00:00:00 10,2 4,4 40 21 47 25 WSW 1004,0 33
23.11.2017 23:00:00 10,4 4,2 40 21 65 35 WSW 1003,7 35
23.11.2017 22:00:00 - - - - - - - - -
23.11.2017 21:00:00 11,0 4,6 67 36 72 39 WSW 1001,7 10
23.11.2017 20:00:00 11,4 3,8 70 38 72 39 WSW 1000,6 10
23.11.2017 19:00:00 11,4 4,6 67 36 - - SW 999,9 10
23.11.2017 18:00:00 11,1 4,0 70 38 72 39 SW 999,1 10
23.11.2017 17:00:00 10,8 2,3 59 32 61 33 SW 998,4 10
23.11.2017 16:00:00 10,4 3,1 55 30 - - WSW 997,8 10
23.11.2017 15:00:00 10,1 2,7 50 27 54 29 WSW 996,7 10
23.11.2017 14:00:00 10,0 3,1 55 30 58 31 WSW 995,6 10
23.11.2017 13:00:00 10,6 4,4 54 29 - - W 994,0 10
23.11.2017 12:00:00 10,7 7,0 63 34 79 43 W 992,3 6
23.11.2017 11:00:00 12,7 10,8 78 42 94 51 SW 990,1 9
23.11.2017 10:00:00 11,6 9,8 85 46 - - SSW 989,0 6
23.11.2017 09:00:00 12,9 7,5 93 50 94 51 SSW 988,4 10
23.11.2017 08:00:00 12,1 6,9 78 42 79 43 S 988,7 10
23.11.2017 07:00:00 12,2 6,7 80 43 - - S 989,2 10
23.11.2017 06:00:00 12,2 6,5 76 41 79 43 S 989,5 10
23.11.2017 05:00:00 12,0 6,8 81 44 79 43 S 989,7 10
23.11.2017 04:00:00 11,8 6,7 78 42 - - S 990,2 10
23.11.2017 03:00:00 12,3 6,9 76 41 79 43 S 990,8 10
23.11.2017 02:00:00 12,4 7,0 78 42 76 41 SSW 991,6 10
23.11.2017 01:00:00 12,2 6,5 78 42 - - S 992,2 10
23.11.2017 00:00:00 11,5 6,3 76 41 83 45 S 992,5 10
22.11.2017 23:00:00 12,4 6,1 74 40 79 43 SSW 993,5 10
22.11.2017 22:00:00 12,2 6,6 80 43 - - SSW 993,9 10
22.11.2017 21:00:00 12,2 6,8 72 39 72 39 SSW 994,7 10
22.11.2017 20:00:00 12,2 7,3 80 43 83 45 SSW 995,3 10
22.11.2017 19:00:00 12,7 6,9 83 45 - - SSW 995,5 10
22.11.2017 18:00:00 12,6 7,5 74 40 76 41 SSW 996,0 10
22.11.2017 17:00:00 12,3 8,2 74 40 76 41 SSW 996,8 10
22.11.2017 16:00:00 12,1 8,5 70 38 - - SSW 997,5 10
22.11.2017 15:00:00 11,5 9,1 72 39 79 43 SSW 997,6 9
22.11.2017 14:00:00 11,8 9,6 78 42 79 43 SSW 998,1 9
22.11.2017 13:00:00 12,1 9,9 78 42 - - SSW 998,3 9
22.11.2017 12:00:00 12,3 10,5 74 40 76 41 SW 998,9 8
22.11.2017 11:00:00 12,6 10,5 70 38 68 37 SW 999,2 9
22.11.2017 10:00:00 12,6 10,6 70 38 - - SW 999,1 10
22.11.2017 09:00:00 12,7 10,6 68 37 72 39 SW 998,8 9
22.11.2017 08:00:00 12,3 10,9 72 39 72 39 SW 998,6 8
22.11.2017 07:00:00 12,5 10,7 68 37 - - SW 998,5 10
22.11.2017 06:00:00 12,6 10,6 70 38 72 39 SW 998,4 10
22.11.2017 05:00:00 12,7 10,6 63 34 72 39 SW 998,6 10
22.11.2017 04:00:00 12,6 10,6 67 36 - - SW 999,0 10
22.11.2017 03:00:00 12,6 10,7 61 33 68 37 SW 999,5 9
22.11.2017 02:00:00 12,0 11,2 68 37 72 39 SW 999,7 4,4
22.11.2017 01:00:00 11,7 11,0 61 33 - - SW 1000,2 5
22.11.2017 00:00:00 11,8 10,5 54 29 58 31 SW 1001,3 7
21.11.2017 23:00:00 12,0 9,9 52 28 54 29 SW 1001,9 10
21.11.2017 22:00:00 12,0 9,2 52 28 - - SW 1002,5 10
21.11.2017 21:00:00 11,7 9,4 48 26 50 27 SW 1002,9 10
21.11.2017 20:00:00 11,6 9,8 54 29 54 29 SW 1003,6 10
21.11.2017 19:00:00 11,1 11,1 48 26 - - SW 1003,9 6
21.11.2017 18:00:00 11,2 11,2 44 24 43 23 WSW 1004,5 4,2
21.11.2017 17:00:00 11,1 11,0 41 22 40 21 WSW 1004,9 2,2
21.11.2017 16:00:00 11,3 11,1 34 18 - - WSW 1005,2 2,9
21.11.2017 15:00:00 11,3 11,2 16 9 25 14 SW 1005,2 1,5
21.11.2017 14:00:00 11,0 10,7 15 8 18 10 SSW 1006,1 4,0
21.11.2017 13:00:00 11,0 11,0 13 7 - - WSW 1006,9 4,3
21.11.2017 12:00:00 10,9 10,6 18 10 18 10 WSW 1007,6 4,5
21.11.2017 11:00:00 10,9 10,4 21 11 22 12 WSW 1007,9 7
21.11.2017 10:00:00 10,8 10,3 24 13 - - WSW 1008,1 8
21.11.2017 09:00:00 10,8 10,2 28 15 25 14 WSW 1007,9 10
21.11.2017 08:00:00 10,9 10,2 16 9 25 14 WSW 1007,8 10
21.11.2017 07:00:00 10,7 9,9 22 12 - - - 1007,8 10
21.11.2017 06:00:00 11,2 9,7 22 12 32 18 W 1007,8 10
21.11.2017 05:00:00 11,2 10,0 28 15 29 16 W 1007,8 10
21.11.2017 04:00:00 11,3 9,8 18 10 - - W 1008,0 10
21.11.2017 03:00:00 11,0 9,2 29 16 36 19 - 1008,0 10
21.11.2017 02:00:00 10,8 9,4 31 17 36 19 - 1007,7 8
21.11.2017 01:00:00 11,3 9,1 26 14 - - W 1007,9 10
21.11.2017 00:00:00 11,0 8,8 37 20 40 21 - 1007,4 10
20.11.2017 23:00:00 11,2 9,4 24 13 32 18 WNW 1007,0 10
20.11.2017 22:00:00 11,5 9,2 37 20 - - WNW 1006,7 10
20.11.2017 21:00:00 11,3 10,3 28 15 40 21 WNW 1006,6 10
20.11.2017 20:00:00 11,6 10,7 34 18 32 18 W 1005,8 10
20.11.2017 19:00:00 11,5 10,7 34 18 - - W 1005,8 6
20.11.2017 18:00:00 10,7 10,4 15 8 22 12 WSW 1006,0 4,7
20.11.2017 17:00:00 10,2 9,8 24 13 25 14 WSW 1006,7 5
20.11.2017 16:00:00 10,2 9,4 26 14 - - WSW 1007,1 10
20.11.2017 15:00:00 8,5 8,0 42 23 47 25 S 1007,7 3,1
20.11.2017 14:00:00 7,8 7,0 52 28 50 27 S 1008,7 3,5
20.11.2017 13:00:00 7,7 6,7 50 27 - - S 1010,2 6
20.11.2017 12:00:00 7,6 6,6 41 22 40 21 S 1011,8 5
20.11.2017 11:00:00 7,7 6,0 31 17 32 18 SSW 1013,1 10
20.11.2017 10:00:00 7,1 4,5 29 16 - - SSW 1014,0 10
20.11.2017 09:00:00 6,4 3,6 29 16 32 18 SW 1014,7 10
20.11.2017 08:00:00 5,7 3,9 28 15 32 18 WSW 1015,4 9
20.11.2017 07:00:00 6,0 3,4 35 19 - - WSW 1016,0 7
20.11.2017 06:00:00 7,3 2,3 31 17 40 21 W 1016,1 10
20.11.2017 05:00:00 8,1 4,5 29 16 40 21 W 1016,1 8
20.11.2017 04:00:00 9,1 2,2 31 17 - - - 1016,5 10
20.11.2017 03:00:00 9,1 1,9 39 21 43 23 - 1017,1 10
20.11.2017 02:00:00 9,1 2,7 41 22 43 23 - 1017,4 10
20.11.2017 01:00:00 8,9 3,3 39 21 - - WNW 1017,9 9
20.11.2017 00:00:00 9,2 3,9 41 22 43 23 WNW 1018,0 10
19.11.2017 23:00:00 8,7 3,0 42 23 54 29 WNW 1018,1 10
19.11.2017 22:00:00 8,7 3,6 46 25 - - - 1018,1 10
19.11.2017 21:00:00 9,0 0,4 55 30 58 31 NW 1017,9 10
19.11.2017 20:00:00 9,4 2,2 50 27 50 27 NW 1017,4 10
19.11.2017 19:00:00 9,6 1,6 50 27 - - NW 1017,0 10
19.11.2017 18:00:00 9,5 2,0 57 31 58 31 NW 1016,7 10
19.11.2017 17:00:00 9,5 3,0 65 35 61 33 NW 1016,4 10
19.11.2017 16:00:00 9,7 1,4 63 34 - - NW 1015,8 10
19.11.2017 15:00:00 9,4 2,4 65 35 68 37 NW 1015,5 10
19.11.2017 14:00:00 8,9 2,7 70 38 72 39 NW 1015,6 10
19.11.2017 13:00:00 9,7 3,0 67 36 - - NW 1015,0 10
19.11.2017 12:00:00 9,8 3,6 68 37 68 37 NW 1014,5 10
19.11.2017 11:00:00 9,4 4,0 67 36 72 39 NW 1014,1 10
19.11.2017 10:00:00 9,4 3,6 70 38 - - NW 1013,3 10
19.11.2017 09:00:00 9,5 4,2 57 31 79 43 NW 1012,8 10
19.11.2017 08:00:00 9,0 2,7 83 45 83 45 NW 1012,3 8
19.11.2017 07:00:00 9,3 3,2 85 46 - - NW 1011,5 10
19.11.2017 06:00:00 9,4 3,1 78 42 83 45 WNW 1011,3 10
19.11.2017 05:00:00 9,6 2,2 72 39 76 41 NNW 1011,3 10
19.11.2017 04:00:00 9,0 2,0 68 37 - - NW 1011,4 10
19.11.2017 03:00:00 8,7 3,1 72 39 76 41 NW 1011,6 10
19.11.2017 02:00:00 9,0 3,4 65 35 68 37 NW 1011,5 10

tt = Température de l'air
td = dewpoint
ff = Vitesse du vent
fx = gusts
dd = Direction du vent
ppp = reduced air pressure
vv = visibility

stations d'obs. à proximité